Home   Weather   Erding   Past weeks

Flag for Germany Past Weather in Erding, Bavaria, Germany — Yesterday and Last 2 Weeks

Now
45 °F

Clear.


Feels Like: 39 °F
Forecast: 31 / 53 °F
Wind: 10 mph from West

Location: Munich / Franz Josef Strauss Airport

Current Time: Nov 21, 2017 at 8:57:04 pm

Latest Report: Nov 21, 2017 at 8:20 pm


Visibility: 10 mi

Pressure: 29.98 "Hg

Humidity: 76%

Dew Point: 37 °F

Location of ErdingLocation

Past Weather in Erding — Graph

°F

Erding Temperature Yesterday

Maximum temperature yesterday: 39 °F (at 11:50 am)
Minimum temperature yesterday: 36 °F (at 1:20 am)
Average temperature yesterday: 37 °F

High & Low Weather Summary for the Past Weeks

 TemperatureHumidityPressure
High50 °F (Nov 12, 2:20 pm)100% (Nov 7, 5:50 am)30.36 "Hg (Nov 7, 5:50 am)
Low28 °F (Nov 14, 1:50 am)56% (Nov 20, 1:50 pm)29.36 "Hg (Nov 12, 3:50 pm)
Average38 °F86%30.08 "Hg
* Reported Nov 6 7:20 pm — Nov 21 7:20 pm, Erding. Weather by CustomWeather, © 2017

Note: Actual official high and low records may vary slightly from our data, if they occured in-between our weather recording intervals... More about our weather records

Advertising

Erding Weather History for the Previous 24 Hours

Scroll right to see more
 ConditionsComfort  
Time TempWeatherWind HumidityBarometerVisibility
7:20 pm
Tue, Nov 21
46 °FClear.12 mph71%29.98 "Hg10 mi
6:50 pm48 °FClear.14 mph66%29.98 "Hg10 mi
6:20 pm50 °FClear.16 mph67%29.98 "Hg10 mi
5:50 pm50 °FPassing clouds.15 mph67%29.98 "HgN/A
5:20 pm48 °FPassing clouds.7 mph71%29.98 "HgN/A
4:50 pm48 °FPartly cloudy.9 mph76%29.98 "HgN/A
4:20 pm48 °FOvercast.10 mph76%29.98 "HgN/A
3:50 pm46 °FLight rain. Overcast.10 mph82%29.98 "HgN/A
3:20 pm46 °FLight rain. Overcast.12 mph82%29.98 "HgN/A
2:50 pm46 °FLight rain. Overcast.15 mph82%29.98 "HgN/A
2:20 pm46 °FOvercast.17 mph76%30.01 "HgN/A
12:50 pm46 °FLight rain. Overcast.14 mph76%30.01 "HgN/A
12:20 pm45 °FLight rain. Overcast.15 mph81%30.01 "HgN/A
11:50 am45 °FLight rain. Mostly cloudy.15 mph81%30.04 "HgN/A
11:20 am45 °FLight rain. Mostly cloudy.18 mph81%30.04 "HgN/A
10:50 am45 °FLight rain. Mostly cloudy.21 mph81%30.04 "HgN/A
10:20 am46 °FOvercast.21 mph71%30.04 "HgN/A
9:50 am46 °FOvercast.20 mph71%30.04 "HgN/A
9:20 am45 °FOvercast.21 mph76%30.04 "HgN/A
8:50 am45 °FOvercast.24 mph76%30.04 "HgN/A
8:20 am45 °FOvercast.18 mph76%30.04 "HgN/A
7:50 am43 °FOvercast.21 mph81%30.01 "HgN/A
7:20 am43 °FOvercast.21 mph81%30.01 "HgN/A
6:50 am43 °FOvercast.21 mph81%30.01 "HgN/A
6:20 am43 °FPassing clouds.23 mph81%30.01 "HgN/A
5:50 am43 °FLight rain. Passing clouds.21 mph81%30.01 "HgN/A
5:20 am43 °FPassing clouds.22 mph81%30.01 "HgN/A
4:50 am43 °FPartly cloudy.22 mph81%30.01 "HgN/A
4:20 am41 °FLight rain. Partly cloudy.24 mph87%30.01 "HgN/A
3:50 am43 °FPassing clouds.18 mph81%30.01 "HgN/A
3:20 am41 °FLight rain. Passing clouds.20 mph87%30.01 "HgN/A
2:50 am43 °FPassing clouds.21 mph76%30.01 "HgN/A
2:20 am41 °FPassing clouds.20 mph81%30.01 "HgN/A
1:50 am41 °FPassing clouds.21 mph76%29.98 "HgN/A
1:20 am41 °FPartly cloudy.21 mph76%30.01 "HgN/A
12:50 am41 °FPassing clouds.21 mph76%30.01 "HgN/A
12:20 am39 °FPartly cloudy.21 mph87%30.01 "HgN/A
11:50 pm
Mon, Nov 20
39 °FDrizzle. Mostly cloudy.21 mph87%30.01 "HgN/A
11:20 pm39 °FLight rain. Overcast.16 mph87%30.01 "HgN/A
10:50 pm37 °FLight rain. Mostly cloudy.17 mph93%30.04 "HgN/A
10:20 pm37 °FLight rain. Overcast.16 mph93%30.04 "HgN/A
9:50 pm39 °FLight rain. Overcast.22 mph81%30.04 "HgN/A
9:20 pm39 °FLight rain. Passing clouds.20 mph75%30.04 "HgN/A
8:50 pm39 °FLight rain. Passing clouds.12 mph75%30.07 "HgN/A
8:20 pm39 °FLight rain. Passing clouds.12 mph75%30.07 "HgN/A
Weather by CustomWeather, © 2017

See weather overview